Tracking 23726 objects as of 22-Sep-2021
HD Live streaming from Space Station
objects crossing your sky now

NATO 3C

Track NATO 3C now!
NATO 3C is classified as:


NORAD ID: 11115
Int'l Code: 1978-106A
Perigee: 36,295.9 km
Apogee: 36,309.4 km
Inclination: 12.3 °
Period: 1,462.2 minutes
Semi major axis: 42673 km
RCS: 7.0899 m2 (large)
Launch date: November 19, 1978
Source: North Atlantic Treaty Organization (NATO)
Launch site: AIR FORCE EASTERN TEST RANGE (AFETR)
aabbcc
Your satellite tracking list
Your tracking list is empty




NASA's NSSDC Master Catalog

Two Line Element Set (TLE):
1 11115U 78106A   21265.55300611 -.00000171  00000-0  00000+0 0  9997
2 11115  12.2902 327.7817 0001580 281.9497  72.9572  0.98483315638310
Source of the keplerian elements: AFSPC